Regional Weather Roundup
Issued by NWS

Home | Current Version | Previous Version | Text Only | Print | Product List | Glossary On
Versions: 1 2 3 4 5 6 7 8 9 10 11 12 13 14 15 16 17 18 19 20 21 22 23 24 25 26 27 28 29 30 31 32 33 34 35 36 37 38 39 40 41 42 43 44 45 46 47 48 49 50
183
ASUS43 KTOP 250508
RWRKS

WEATHER ROUNDUP FOR KANSAS
NATIONAL WEATHER SERVICE GOODLAND KS
1200 AM CDT SAT MAR 25 2017

NOTE:  "FAIR" INDICATES FEW OR NO CLOUDS BELOW 12,000 FEET WITH NO
SIGNIFICANT WEATHER AND/OR OBSTRUCTIONS TO VISIBILITY.

KSZ001>006-013>018-027>032-041>047-250600-
NORTHWEST KANSAS

CITY           SKY/WX    TMP DP  RH WIND       PRES   REMARKS
GOODLAND       CLOUDY    40  36  86 NW14      30.07S WCI  32
HAYS             N/A     42  38  85 N20       29.99S
HILL CITY      CLOUDY    42  39  89 N15G25    30.03F
RUSSELL        LGT RAIN  41  39  93 N15       29.96S FOG
$$

KSZ061>065-074>080-084>089-250600-
SOUTHWEST KANSAS

CITY           SKY/WX    TMP DP  RH WIND       PRES   REMARKS
DODGE CITY     CLOUDY    41  39  93 N17G24    30.00R
ELKHART          N/A     40  29  65 NW17        N/A  WCI  31
GARDEN CITY    CLOUDY    41  39  93 N15       30.03F
GREAT BEND     CLOUDY    42  38  85 N23       29.96S
LIBERAL        CLOUDY    45  36  70 N23G29    30.03S
PRATT          CLOUDY    39  38  94 N23       29.93S FOG     WCI  29
$$

KSZ066>073-081>083-090>101-250600-
SOUTHEAST KANSAS

CITY           SKY/WX    TMP DP  RH WIND       PRES   REMARKS
CHANUTE        LGT RAIN  53  50  89 NW10      29.82F
COFFEYVILLE    LGT RAIN  55  50  83 N17       29.82R
HUTCHINSON     CLOUDY    44  42  93 N13G22    29.90S
MEDICINE LODGE   N/A     45  40  82 N21G30    29.88F
PARSONS        LGT RAIN  53  50  89 N14       29.83S
WICHITA INTL   CLOUDY    48  48 100 N15G26    29.86S
WICHITA JABRA  LGT RAIN  48  47  96 NW15      29.85F
WICHITA MCCONL CLOUDY    50  46  87 N15G23    29.84F
WINFIELD       CLOUDY    55  47  74 N13       29.83R
$$

KSZ007>012-019>026-033>040-048>060-102>105-250600-
NORTHEAST KANSAS

CITY           SKY/WX    TMP DP  RH WIND       PRES   REMARKS
CONCORDIA      CLOUDY    42  40  92 N12G26    29.94F
EMPORIA        LGT RAIN  50  50 100 N7        29.82F
LAWRENCE       CLOUDY    55  54  96 N16G25    29.80S
MANHATTAN      CLOUDY    46  43  89 N12G20    29.86F
MARYSVILLE     CLOUDY    43  39  87 N20       29.92R
OLATHE IND     CLOUDY    55  52  89 NE7       29.78F
OLATHE EXE     CLOUDY    58  56  93 N5        29.79S
SALINA         LGT RAIN  45  42  89 N23       29.92S
TOPEKA BILLARD CLOUDY    52  51  97 N13G22    29.81R
TOPEKA FORBES  CLOUDY    55  52  89 VRB7      29.81R
$$




USA.gov is the U.S. government's official web portal to all federal, state and local government web resources and services.